Hourly Weather Chakhansur

Today, 28 November, Saturday

Time Temperature Precipitation Wind Pressure Humidity
00:00 +15°C° 0 mm 2 mps 725 mmHg 26%
01:00 +15°C° 0 mm 2 mps 725 mmHg 26%
02:00 +15°C° 0 mm 2 mps 725 mmHg 26%
03:00 +14°C° 0 mm 3 mps 725 mmHg 27%
04:00 +14°C° 0 mm 3 mps 726 mmHg 27%
05:00 +13°C° 0 mm 4 mps 726 mmHg 29%
06:00 +12°C° 0 mm 5 mps 726 mmHg 31%
07:00 +10°C° 0 mm 6 mps 727 mmHg 34%
08:00 +11°C° 0 mm 7 mps 727 mmHg 34%
09:00 +12°C° 0 mm 7 mps 727 mmHg 34%
10:00 +12°C° 0 mm 7 mps 727 mmHg 34%
11:00 +15°C° 0 mm 6 mps 727 mmHg 31%
12:00 +16°C° 0 mm 6 mps 726 mmHg 29%
13:00 +17°C° 0 mm 5 mps 726 mmHg 26%
14:00 +18°C° 0 mm 4 mps 725 mmHg 26%
15:00 +18°C° 0 mm 4 mps 725 mmHg 26%
16:00 +18°C° 0 mm 3 mps 725 mmHg 26%
17:00 +17°C° 0 mm 3 mps 725 mmHg 29%
18:00 +15°C° 0 mm 4 mps 725 mmHg 33%
19:00 +14°C° 0 mm 4 mps 725 mmHg 37%
20:00 +13°C° 0 mm 4 mps 725 mmHg 41%
21:00 +12°C° 0 mm 4 mps 725 mmHg 45%
22:00 +12°C° 0 mm 4 mps 725 mmHg 49%
23:00 +11°C° 0 mm 4 mps 725 mmHg 51%

Tomorrow, 29 November, Sunday

Time Temperature Precipitation Wind Pressure Humidity
00:00 +10°C° 0 mm 4 mps 725 mmHg 53%
01:00 +10°C° 0 mm 4 mps 724 mmHg 55%
02:00 +8°C° 0 mm 4 mps 724 mmHg 56%
03:00 +8°C° 0 mm 4 mps 724 mmHg 57%
04:00 +8°C° 0 mm 4 mps 724 mmHg 57%
05:00 +9°C° 0 mm 3 mps 724 mmHg 57%
06:00 +8°C° 0 mm 3 mps 725 mmHg 58%
07:00 +8°C° 0 mm 3 mps 725 mmHg 58%
08:00 +9°C° 0 mm 3 mps 725 mmHg 54%
09:00 +11°C° 0 mm 3 mps 725 mmHg 49%
10:00 +12°C° 0 mm 3 mps 725 mmHg 45%
11:00 +14°C° 0 mm 2 mps 725 mmHg 42%
12:00 +15°C° 0 mm 2 mps 724 mmHg 38%
13:00 +16°C° 0 mm 1 mps 723 mmHg 35%
14:00 +18°C° 0 mm 1 mps 723 mmHg 34%
15:00 +18°C° 0 mm 1 mps 723 mmHg 33%
16:00 +18°C° 0 mm 1 mps 723 mmHg 32%
17:00 +15°C° 0 mm 0 mps 723 mmHg 36%
18:00 +14°C° 0 mm 0 mps 723 mmHg 39%
19:00 +13°C° 0 mm 0 mps 723 mmHg 43%
20:00 +12°C° 0 mm 0 mps 723 mmHg 43%
21:00 +13°C° 0 mm 1 mps 723 mmHg 44%
22:00 +12°C° 0 mm 1 mps 723 mmHg 44%
23:00 +12°C° 0 mm 1 mps 723 mmHg 45%

Day after tomorrow, 30 November, Monday

Time Temperature Precipitation Wind Pressure Humidity
00:00 +12°C° 0 mm 2 mps 723 mmHg 46%
01:00 +12°C° 0 mm 2 mps 722 mmHg 46%
02:00 +12°C° 0 mm 2 mps 722 mmHg 47%
03:00 +12°C° 0 mm 1 mps 722 mmHg 48%
04:00 +11°C° 0 mm 1 mps 722 mmHg 49%
05:00 +12°C° 0 mm 1 mps 722 mmHg 49%
06:00 +12°C° 0 mm 1 mps 722 mmHg 49%
07:00 +12°C° 0 mm 1 mps 722 mmHg 49%
08:00 +13°C° 0 mm 1 mps 722 mmHg 44%
09:00 +14°C° 0 mm 1 mps 723 mmHg 40%
10:00 +16°C° 0 mm 1 mps 723 mmHg 36%
11:00 +18°C° 0 mm 1 mps 722 mmHg 33%
12:00 +19°C° 0 mm 1 mps 722 mmHg 31%
13:00 +20°C° 0 mm 1 mps 721 mmHg 28%
14:00 +20°C° 0 mm 1 mps 721 mmHg 28%
15:00 +20°C° 0 mm 1 mps 721 mmHg 28%
16:00 +20°C° 0 mm 1 mps 720 mmHg 29%
17:00 +19°C° 0 mm 1 mps 721 mmHg 32%
18:00 +18°C° 0 mm 1 mps 721 mmHg 35%
19:00 +14°C° 0 mm 0 mps 721 mmHg 38%
20:00 +14°C° 0 mm 0 mps 721 mmHg 39%
21:00 +13°C° 0 mm 0 mps 721 mmHg 39%
22:00 +13°C° 0 mm 0 mps 721 mmHg 40%
23:00 +13°C° 0 mm 0 mps 721 mmHg 40%

1 December, Tuesday

Time Temperature Precipitation Wind Pressure Humidity
00:00 +14°C° 0 mm 1 mps 721 mmHg 39%
01:00 +14°C° 0 mm 1 mps 721 mmHg 39%
02:00 +13°C° 0 mm 1 mps 720 mmHg 39%
03:00 +13°C° 0 mm 1 mps 720 mmHg 40%
04:00 +13°C° 0 mm 2 mps 720 mmHg 40%
05:00 +13°C° 0 mm 1 mps 721 mmHg 40%
06:00 +13°C° 0 mm 1 mps 721 mmHg 40%
07:00 +13°C° 0 mm 1 mps 721 mmHg 39%
08:00 +15°C° 0 mm 1 mps 722 mmHg 35%
09:00 +18°C° 0 mm 1 mps 722 mmHg 30%
10:00 +20°C° 0 mm 1 mps 723 mmHg 25%
11:00 +21°C° 0 mm 1 mps 722 mmHg 23%
12:00 +22°C° 0 mm 1 mps 722 mmHg 22%
13:00 +23°C° 0 mm 1 mps 721 mmHg 21%
14:00 +23°C° 0 mm 1 mps 721 mmHg 22%
15:00 +22°C° 0 mm 1 mps 721 mmHg 23%
16:00 +22°C° 0 mm 1 mps 721 mmHg 24%
17:00 +21°C° 0 mm 1 mps 721 mmHg 27%
18:00 +17°C° 0 mm 0 mps 721 mmHg 29%
19:00 +16°C° 0 mm 0 mps 721 mmHg 31%
20:00 +15°C° 0 mm 0 mps 721 mmHg 32%
21:00 +15°C° 0 mm 0 mps 721 mmHg 32%
22:00 +15°C° 0 mm 1 mps 721 mmHg 32%
23:00 +15°C° 0 mm 1 mps 721 mmHg 33%

2 December, Wednesday

Time Temperature Precipitation Wind Pressure Humidity
00:00 +15°C° 0 mm 1 mps 721 mmHg 34%
01:00 +14°C° 0 mm 1 mps 721 mmHg 34%
02:00 +14°C° 0 mm 1 mps 721 mmHg 35%
03:00 +14°C° 0 mm 1 mps 721 mmHg 36%
04:00 +14°C° 0 mm 1 mps 721 mmHg 36%
05:00 +14°C° 0 mm 1 mps 721 mmHg 36%
06:00 +13°C° 0 mm 1 mps 722 mmHg 37%
07:00 +13°C° 0 mm 1 mps 722 mmHg 37%
08:00 +16°C° 0 mm 1 mps 723 mmHg 32%
09:00 +19°C° 0 mm 1 mps 723 mmHg 27%
10:00 +21°C° 0 mm 1 mps 724 mmHg 23%
11:00 +22°C° 0 mm 1 mps 723 mmHg 22%
12:00 +23°C° 0 mm 1 mps 722 mmHg 20%
13:00 +24°C° 0 mm 1 mps 722 mmHg 19%
14:00 +23°C° 0 mm 1 mps 721 mmHg 21%
15:00 +23°C° 0 mm 1 mps 721 mmHg 22%
16:00 +23°C° 0 mm 1 mps 721 mmHg 23%
17:00 +21°C° 0 mm 1 mps 721 mmHg 25%
18:00 +20°C° 0 mm 1 mps 721 mmHg 27%
19:00 +19°C° 0 mm 1 mps 721 mmHg 29%
20:00 +18°C° 0 mm 1 mps 721 mmHg 30%
21:00 +15°C° 0 mm 0 mps 720 mmHg 31%
22:00 +15°C° 0 mm 0 mps 720 mmHg 32%
23:00 +14°C° 0 mm 0 mps 720 mmHg 32%

3 December, Thursday

Time Temperature Precipitation Wind Pressure Humidity
00:00 +14°C° 0 mm 0 mps 720 mmHg 33%
01:00 +14°C° 0 mm 0 mps 720 mmHg 33%
02:00 +14°C° 0 mm 0 mps 720 mmHg 33%
03:00 +14°C° 0 mm 1 mps 720 mmHg 34%
04:00 +14°C° 0 mm 1 mps 720 mmHg 34%
05:00 +14°C° 0 mm 1 mps 720 mmHg 34%
06:00 +14°C° 0 mm 1 mps 720 mmHg 35%
07:00 +13°C° 0 mm 0 mps 720 mmHg 35%
08:00 +15°C° 0 mm 0 mps 720 mmHg 31%
09:00 +17°C° 0 mm 0 mps 721 mmHg 26%
10:00 +20°C° 0 mm 0 mps 721 mmHg 22%
11:00 +21°C° 0 mm 0 mps 720 mmHg 20%
12:00 +22°C° 0 mm 0 mps 720 mmHg 19%
13:00 +22°C° 0 mm 0 mps 719 mmHg 18%
14:00 +24°C° 0 mm 1 mps 719 mmHg 19%
15:00 +24°C° 0 mm 1 mps 719 mmHg 20%
16:00 +24°C° 0 mm 1 mps 719 mmHg 21%
17:00 +22°C° 0 mm 1 mps 719 mmHg 23%
18:00 +21°C° 0 mm 1 mps 719 mmHg 25%
19:00 +20°C° 0 mm 1 mps 719 mmHg 27%
20:00 +19°C° 0 mm 1 mps 719 mmHg 27%
21:00 +19°C° 0 mm 1 mps 719 mmHg 28%
22:00 +18°C° 0 mm 1 mps 719 mmHg 29%
23:00 +17°C° 0 mm 2 mps 719 mmHg 30%
Show more